Morrisville, VT

7:05 PM EDT on September 20, 2017 (GMT -0400)
Morrisville Stowe State

Weather History for KMVL - January, 2014

Change the Weather History Date:

Saturday, January 11, 2014

  Actual Average Record
Temperature  
Mean Temperature 36 °F 16 °F  
Max Temperature 48 °F 26 °F 48 °F (2014)
Min Temperature 24 °F 6 °F -24 °F (2004)
Degree Days  
Heating Degree Days 29 49  
Month to date heating degree days 589 531  
Since 1 July heating degree days 3733 3669  
Cooling Degree Days 0 0  
Month to date cooling degree days 0 0  
Year to date cooling degree days 0 0  
Moisture  
Dew Point 36 °F    
Average Humidity 91    
Maximum Humidity 100    
Minimum Humidity 81    
Precipitation  
Precipitation 0.95 in 0.08 in 0.95 in (2014)
Month to date precipitation 1.65 1.03  
Year to date precipitation 1.65 1.03  
Sea Level Pressure  
Sea Level Pressure 29.50 in    
Wind  
Wind Speed 3 mph (South)    
Max Wind Speed 17 mph    
Max Gust Speed 28 mph    
Visibility 4 miles    
Events Fog , Rain    
T = Trace of Precipitation, MM = Missing Value Source: NWS Daily Summary

Daily Weather History Graph

Daily Weather History Graph

Search for Another Location

Airport or City:

Trip Planner

Search our weather history database for the weather conditions in past years. The results will help you decide how hot, cold, wet, or windy it might be!

Date:

Astronomy

Jan. 11, 2014 Rise Set
Actual Time 7:25 AM EST 4:31 PM EST
Civil Twilight 6:52 AM EST 5:04 PM EST
Nautical Twilight 6:16 AM EST 5:40 PM EST
Astronomical Twilight 5:41 AM EST 6:15 PM EST
Moon 1:15 PM EST (1/11) 3:25 AM EST (1/11)
Length of Visible Light 10h 11m
Length of Day
9h 06m
Waxing Gibbous, 83% of the Moon is Illuminated
Jan 11
Waxing Gibbous
Jan 15
Full
Jan 24
Last Quarter
Jan 30
New
Feb 6
First Quarter

Hourly Weather History & Observations

Time (EST) Temp. Windchill Dew Point Humidity Pressure Visibility Wind Dir Wind Speed Gust Speed Precip Events Conditions
12:54 AM 25.0 °F - 19.9 °F 81% 30.19 in 8.0 mi Calm Calm - N/A   Overcast
1:29 AM 24.8 °F - 21.2 °F 86% 30.14 in 9.0 mi Calm Calm - N/A   Overcast
1:54 AM 25.0 °F - 19.9 °F 81% 30.17 in 8.0 mi Calm Calm - N/A   Overcast
2:54 AM 25.0 °F - 21.0 °F 85% 30.14 in 7.0 mi Calm Calm - N/A   Overcast
3:54 AM 25.0 °F - 21.9 °F 88% 30.09 in 8.0 mi Calm Calm - N/A   Overcast
4:54 AM 30.0 °F 25.2 °F 26.1 °F 85% 30.04 in 10.0 mi South 4.6 mph - N/A   Overcast
5:40 AM 32.0 °F 27.5 °F 28.4 °F 87% 29.96 in 6.0 mi SSE 4.6 mph - 0.03 in   Overcast
5:54 AM 32.0 °F 27.5 °F 28.9 °F 88% 29.99 in 4.0 mi SSE 4.6 mph - 0.05 in Rain Light Freezing Rain
6:29 AM 33.8 °F 29.6 °F 30.2 °F 87% 29.91 in 9.0 mi South 4.6 mph - 0.00 in Rain Light Freezing Rain
6:46 AM 33.8 °F 27.7 °F 30.2 °F 87% 29.90 in 9.0 mi SSE 6.9 mph - 0.00 in   Overcast
6:54 AM 33.1 °F 28.7 °F 30.9 °F 92% 29.93 in 8.0 mi South 4.6 mph - 0.00 in   Overcast
7:54 AM 35.1 °F 30.1 °F 32.0 °F 89% 29.88 in 5.0 mi SSW 5.8 mph - 0.04 in Rain Light Rain
8:54 AM 36.0 °F 33.3 °F 34.0 °F 93% 29.84 in 5.0 mi SSE 3.5 mph - 0.00 in Rain Light Rain
9:28 AM 37.4 °F 34.9 °F 35.6 °F 93% 29.78 in 7.0 mi SSE 3.5 mph - 0.03 in Rain Light Rain
9:33 AM 37.4 °F 34.9 °F 33.8 °F 87% 29.76 in 5.0 mi Variable 3.5 mph - 0.04 in Rain Light Rain
9:47 AM 37.4 °F 33.8 °F 35.6 °F 93% 29.76 in 6.0 mi SSE 4.6 mph - 0.04 in Rain Light Rain
9:54 AM 37.0 °F 34.5 °F 35.1 °F 93% 29.79 in 3.0 mi South 3.5 mph - 0.05 in Rain Light Rain
10:21 AM 37.4 °F - 35.6 °F 93% 29.73 in 8.0 mi Calm Calm - 0.03 in Rain Light Rain
10:54 AM 37.9 °F 35.5 °F 36.0 °F 93% 29.71 in 9.0 mi SSE 3.5 mph - 0.03 in Rain Light Rain
11:08 AM 37.4 °F 32.8 °F 35.6 °F 93% 29.67 in 6.0 mi SE 5.8 mph - 0.01 in Rain Light Rain
11:54 AM 39.0 °F 36.8 °F 37.0 °F 93% 29.65 in 4.0 mi SSE 3.5 mph - 0.03 in Rain Rain
12:38 PM 39.2 °F 35.9 °F 37.4 °F 93% 29.55 in 9.0 mi SE 4.6 mph - 0.02 in Rain Light Rain
12:52 PM 39.2 °F - 37.4 °F 93% 29.54 in 7.0 mi Calm Calm - 0.03 in Rain Light Rain
12:54 PM 39.0 °F 36.8 °F 37.9 °F 96% 29.56 in 6.0 mi SSE 3.5 mph - 0.03 in Rain Light Rain
1:13 PM 37.4 °F 34.9 °F 37.4 °F 100% 29.51 in 1.8 mi SE 3.5 mph - 0.02 in Rain Light Rain
1:27 PM 39.2 °F - 37.4 °F 93% 29.49 in 3.0 mi Calm Calm - 0.04 in Rain Light Rain
1:32 PM 39.2 °F 37.0 °F 37.4 °F 93% 29.49 in 2.5 mi SSE 3.5 mph - 0.06 in Rain Rain
1:38 PM 39.2 °F - 37.4 °F 93% 29.48 in 1.2 mi Calm Calm - 0.08 in Rain Rain
1:54 PM 39.0 °F - 37.9 °F 96% 29.49 in 2.0 mi Calm Calm - 0.10 in Rain Rain
2:10 PM 39.2 °F - 37.4 °F 93% 29.44 in 1.0 mi Calm Calm - 0.02 in Rain Light Rain
2:18 PM 39.2 °F - 37.4 °F 93% 29.43 in 0.8 mi Calm Calm - 0.02 in Rain Light Rain
2:24 PM 39.2 °F - 37.4 °F 93% 29.43 in 1.2 mi Calm Calm - 0.03 in Rain Light Rain
2:37 PM 41.0 °F 39.0 °F 39.2 °F 93% 29.42 in 2.5 mi Variable 3.5 mph - 0.05 in Rain Rain
2:44 PM 41.0 °F - 39.2 °F 93% 29.42 in 4.0 mi Calm Calm - 0.06 in Rain Rain
2:54 PM 42.1 °F 40.2 °F 39.9 °F 92% 29.44 in 4.0 mi SSE 3.5 mph - 0.08 in Rain Light Rain
3:06 PM 41.0 °F 38.0 °F 39.2 °F 93% 29.41 in 1.8 mi South 4.6 mph - 0.04 in Rain Heavy Rain
3:31 PM 42.8 °F - 42.8 °F 100% 29.39 in 2.5 mi Calm Calm - 0.14 in Rain Rain
3:38 PM 42.8 °F - 42.8 °F 100% 29.38 in 4.0 mi Calm Calm - 0.15 in Rain Rain
3:47 PM 42.8 °F - 42.8 °F 100% 29.36 in 1.5 mi Calm Calm - 0.18 in Rain Light Rain
3:50 PM 42.8 °F - 41.0 °F 93% 29.36 in 0.8 mi Calm Calm - 0.18 in Rain Light Rain
3:54 PM 41.0 °F 39.0 °F 39.0 °F 93% 29.39 in 0.2 mi North 3.5 mph - 0.18 in Fog , Rain Light Rain
4:16 PM 41.0 °F - 39.2 °F 93% 29.35 in 0.2 mi Calm Calm - 0.09 in Fog , Rain Rain
4:54 PM 39.0 °F - 37.0 °F 93% 29.35 in 0.5 mi Calm Calm - 0.18 in Fog , Rain Light Rain
5:16 PM 42.8 °F 40.1 °F 39.2 °F 87% 29.33 in 0.5 mi Variable 4.6 mph - 0.10 in Fog , Rain Rain
5:25 PM 42.8 °F 41.1 °F 41.0 °F 93% 29.31 in 1.0 mi South 3.5 mph - 0.12 in Rain Rain
5:28 PM 42.8 °F 40.1 °F 42.8 °F 100% 29.31 in 1.2 mi SSW 4.6 mph - 0.13 in Rain Rain
5:34 PM 44.6 °F 43.1 °F 42.8 °F 93% 29.31 in 3.0 mi Variable 3.5 mph - 0.14 in Rain Light Rain
5:46 PM 41.0 °F 39.0 °F 39.2 °F 93% 29.28 in 1.8 mi SSW 3.5 mph - 0.15 in Rain Light Rain
5:52 PM 39.2 °F 35.9 °F 39.2 °F 100% 29.26 in 0.8 mi SSW 4.6 mph - 0.15 in Rain Light Rain
5:54 PM 39.9 °F 36.7 °F 39.0 °F 97% 29.27 in 0.8 mi SSW 4.6 mph - 0.15 in Rain Light Rain
6:01 PM 44.6 °F 43.1 °F 41.0 °F 87% 29.24 in 1.2 mi SW 3.5 mph - 0.00 in Rain Light Rain
6:05 PM 42.8 °F 41.1 °F 42.8 °F 100% 29.24 in 3.0 mi SSW 3.5 mph - 0.00 in Rain Light Rain
6:11 PM 41.0 °F 38.0 °F 39.2 °F 93% 29.24 in 1.2 mi Variable 4.6 mph - 0.00 in   Mostly Cloudy
6:13 PM 39.2 °F 34.2 °F 39.2 °F 100% 29.24 in 0.8 mi SE 6.9 mph - 0.00 in   Mostly Cloudy
6:23 PM 41.0 °F - 39.2 °F 93% 29.24 in 1.2 mi Calm Calm - 0.00 in   Mostly Cloudy
6:28 PM 39.2 °F - 37.4 °F 93% 29.25 in 0.8 mi Calm Calm - 0.00 in   Mostly Cloudy
6:36 PM 41.0 °F - 39.2 °F 93% 29.25 in 1.2 mi Calm Calm - 0.00 in   Mostly Cloudy
6:47 PM 41.0 °F - 39.2 °F 93% 29.25 in 1.0 mi Calm Calm - 0.00 in   Overcast
6:54 PM 41.0 °F - 39.9 °F 96% 29.25 in 0.5 mi Calm Calm - 0.00 in Fog Fog
7:37 PM 39.2 °F 37.0 °F 39.2 °F 100% 29.22 in 0.8 mi South 3.5 mph - N/A   Overcast
7:54 PM 39.0 °F - 37.9 °F 96% 29.22 in 0.2 mi Calm Calm - N/A Fog Fog
8:01 PM 37.4 °F - 37.4 °F 100% 29.19 in 0.5 mi Calm Calm - N/A Fog Fog
8:46 PM 37.4 °F 33.8 °F 37.4 °F 100% 29.16 in 0.5 mi SSW 4.6 mph - N/A Fog Fog
8:54 PM 39.0 °F - 37.0 °F 93% 29.17 in 0.5 mi Calm Calm - N/A Fog Fog
9:41 PM 37.4 °F - 37.4 °F 100% 29.13 in 1.2 mi Calm Calm - N/A   Overcast
9:54 PM 37.9 °F 35.5 °F 37.0 °F 97% 29.16 in 2.0 mi Variable 3.5 mph - N/A   Overcast
10:03 PM 44.6 °F 42.2 °F 42.8 °F 93% 29.14 in 9.0 mi Variable 4.6 mph - N/A   Overcast
10:54 PM 48.0 °F - 39.9 °F 74% 29.19 in 9.0 mi Variable 4.6 mph 19.6 mph 0.02 in Rain Light Rain
11:54 PM 46.0 °F 41.9 °F 39.0 °F 76% 29.22 in 10.0 mi SSW 8.1 mph - 0.01 in Rain Light Rain